Portada
METAR-TAF:

METAR-TAF

Aeroports :

Waseca Municipal Airport

Waseca, Minnesota, Estats Units d'Amèrica

latitud: 44-04-24N, longitud: 093-33-11W, altitud: 343 m

Observació

L'informe es va fer fa 23 minuts, a les 03:55 UTC
Vent calma
Temperatura 16°C
Humitat 94%
Pressió 1019 hPa
Visibilitat: 4.8 km
boirina

METAR: KACQ 180355Z AUTO 00000KT 3SM BR 16/15 A3010 RMK AO2 SKY OBSCURED

Hora: 23:18 (04:18 UTC)


TAF: manca

Observacions i pronòstics meteorològics de més de 4000 aeroports (METAR i TAF).

Les estacions disponibles són els punts grocs i vermells al mapa.

Posi el ratolí al punt desitjat per veure el nom de l'estació.

Feu clic per veure les observacions i els pronòstics meteorològics.

Per canviar el mapa: feu clic els botons verds amb una creu de color negre per apropar; al botó verd amb un guió per allunyar la imatge; o en les fletxes verdes per a mapes adjacents.


METAR-TAF: